Change the Weather History Date:

Sunday, November 16, 2014

  Actual Average Record
Temperature  
Mean Temperature 35 °F -  
Max Temperature 43 °F 53 °F 70 °F (1991)
Min Temperature 27 °F 30 °F 13 °F (1967)
Degree Days  
Heating Degree Days 30    
Moisture  
Dew Point 19 °F    
Average Humidity 53    
Maximum Humidity 77    
Minimum Humidity 35    
Precipitation  
Precipitation 0.00 in - - ()
Sea Level Pressure  
Sea Level Pressure 30.13 in    
Wind  
Wind Speed 3 mph (SSE)    
Max Wind Speed 7 mph    
Max Gust Speed -    
Visibility 10 miles    
Events Rain    
Averages and records for this station are not official NWS values.
T = Trace of Precipitation, MM = Missing Value Source: NWS Daily Summary

Daily Weather History Graph

Daily Weather History Graph

Search for Another Location

Airport or City:

Trip Planner

Search our weather history database for the weather conditions in past years. The results will help you decide how hot, cold, wet, or windy it might be!

Date:

Astronomy

Nov. 16, 2014 Rise Set
Actual Time 7:04 AM EST 5:16 PM EST
Civil Twilight 6:36 AM EST 5:44 PM EST
Nautical Twilight 6:05 AM EST 6:15 PM EST
Astronomical Twilight 5:34 AM EST 6:45 PM EST
Moon 1:19 AM EST (11/16) 2:00 PM EST (11/16)
Length of Visible Light 11h 07m
Length of Day
10h 12m
Waning Crescent, 31% of the Moon is Illuminated
Nov 16
Waning Crescent
Nov 22
New
Nov 29
First Quarter
Dec 6
Full
Dec 14
Last Quarter

Hourly Weather History & Observations

Time (EST) Temp. Windchill Dew Point Humidity Pressure Visibility Wind Dir Wind Speed Gust Speed Precip Events Conditions
12:15 AM 27.3 °F 22.0 °F 10.4 °F 49% 30.23 in 10.0 mi South 4.6 mph - N/A   Clear
12:35 AM 27.5 °F 20.2 °F 11.3 °F 51% 30.22 in 10.0 mi South 6.9 mph - N/A   Clear
12:55 AM 28.2 °F 22.0 °F 11.5 °F 50% 30.22 in 10.0 mi South 5.8 mph - N/A   Mostly Cloudy
1:15 AM 28.6 °F 23.5 °F 12.2 °F 50% 30.22 in 10.0 mi South 4.6 mph - N/A   Overcast
1:35 AM 29.1 °F 24.1 °F 12.4 °F 50% 30.22 in 10.0 mi SSE 4.6 mph - N/A   Overcast
1:55 AM 29.3 °F 25.6 °F 12.6 °F 50% 30.22 in 10.0 mi SSE 3.5 mph - N/A   Overcast
2:15 AM 29.3 °F 24.3 °F 12.2 °F 49% 30.21 in 10.0 mi SSE 4.6 mph - N/A   Overcast
2:35 AM 29.3 °F - 11.7 °F 48% 30.20 in 10.0 mi Calm Calm - N/A   Overcast
2:55 AM 29.7 °F 26.1 °F 13.3 °F 51% 30.20 in 10.0 mi SSE 3.5 mph - N/A   Overcast
3:15 AM 29.7 °F 26.1 °F 12.6 °F 49% 30.21 in 10.0 mi SSE 3.5 mph - N/A   Overcast
3:35 AM 29.8 °F - 12.6 °F 49% 30.21 in 10.0 mi Calm Calm - N/A   Overcast
3:55 AM 29.8 °F - 12.4 °F 48% 30.21 in 10.0 mi Calm Calm - N/A   Overcast
4:15 AM 30.2 °F - 11.7 °F 46% 30.21 in 10.0 mi Calm Calm - N/A   Overcast
4:35 AM 30.2 °F - 12.6 °F 48% 30.21 in 10.0 mi Calm Calm - N/A   Overcast
4:55 AM 30.2 °F - 12.4 °F 48% 30.20 in 10.0 mi Calm Calm - N/A   Overcast
5:15 AM 30.2 °F - 12.7 °F 48% 30.20 in 10.0 mi Calm Calm - N/A   Overcast
5:35 AM 30.4 °F - 12.7 °F 48% 30.20 in 10.0 mi Calm Calm - N/A   Overcast
5:55 AM 30.4 °F - 13.5 °F 50% 30.20 in 10.0 mi Calm Calm - N/A   Overcast
6:15 AM 30.2 °F - 12.7 °F 48% 30.21 in 10.0 mi Calm Calm - N/A   Overcast
6:35 AM 30.2 °F - 12.6 °F 48% 30.20 in 10.0 mi Calm Calm - N/A   Overcast
6:55 AM 30.0 °F - 12.6 °F 48% 30.20 in 10.0 mi Calm Calm - N/A   Overcast
7:15 AM 29.8 °F - 13.6 °F 51% 30.20 in 10.0 mi Calm Calm - N/A   Overcast
7:35 AM 30.2 °F - 14.2 °F 51% 30.20 in 10.0 mi Calm Calm - N/A   Overcast
7:55 AM 30.7 °F - 13.6 °F 49% 30.21 in 10.0 mi Calm Calm - N/A   Overcast
8:15 AM 30.9 °F - 14.0 °F 50% 30.21 in 10.0 mi Calm Calm - N/A   Overcast
8:35 AM 30.7 °F - 12.9 °F 48% 30.22 in 10.0 mi Calm Calm - N/A   Overcast
8:55 AM 31.5 °F - 14.0 °F 49% 30.21 in 10.0 mi Calm Calm - N/A   Overcast
9:15 AM 33.4 °F 30.4 °F 14.4 °F 46% 30.20 in 10.0 mi SE 3.5 mph - N/A   Overcast
9:35 AM 34.9 °F - 14.9 °F 44% 30.20 in 10.0 mi Calm Calm - N/A   Overcast
9:55 AM 37.4 °F - 16.0 °F 42% 30.20 in 10.0 mi Calm Calm - N/A   Mostly Cloudy
10:15 AM 37.6 °F 33.1 °F 14.5 °F 39% 30.20 in 10.0 mi NW 5.8 mph - N/A   Clear
10:35 AM 39.2 °F - 15.4 °F 38% 30.19 in 10.0 mi Calm Calm - N/A   Clear
10:55 AM 40.5 °F - 16.5 °F 38% 30.18 in 10.0 mi Calm Calm - N/A   Clear
11:15 AM 41.9 °F 38.2 °F 16.7 °F 36% 30.17 in 10.0 mi ESE 5.8 mph - N/A   Clear
11:35 AM 43.7 °F 41.1 °F 17.6 °F 35% 30.16 in 10.0 mi ESE 4.6 mph - N/A   Scattered Clouds
11:55 AM 43.5 °F 40.9 °F 17.1 °F 35% 30.16 in 10.0 mi ESE 4.6 mph - N/A   Scattered Clouds
12:15 PM 42.6 °F 39.0 °F 16.7 °F 35% 30.15 in 10.0 mi SE 5.8 mph - N/A   Scattered Clouds
12:35 PM 41.7 °F 38.0 °F 16.3 °F 36% 30.14 in 10.0 mi SE 5.8 mph - N/A   Overcast
12:55 PM 41.0 °F 36.4 °F 16.9 °F 38% 30.12 in 10.0 mi SE 6.9 mph - N/A   Mostly Cloudy
1:15 PM 41.5 °F 37.8 °F 17.6 °F 38% 30.11 in 10.0 mi SE 5.8 mph - N/A   Mostly Cloudy
1:35 PM 41.2 °F 39.2 °F 18.0 °F 39% 30.10 in 10.0 mi SE 3.5 mph - N/A   Scattered Clouds
1:55 PM 41.2 °F 39.2 °F 18.7 °F 40% 30.09 in 10.0 mi ESE 3.5 mph - N/A   Mostly Cloudy
2:15 PM 40.1 °F 35.3 °F 22.8 °F 50% 30.09 in 10.0 mi ESE 6.9 mph - N/A Rain Light Rain
2:40 PM 39.6 °F - 22.3 °F 50% 30.09 in 10.0 mi Calm Calm - N/A Rain Light Rain
2:55 PM 39.4 °F - 23.4 °F 53% 30.10 in 10.0 mi Calm Calm - N/A Rain Light Rain
3:15 PM 38.3 °F - 26.8 °F 63% 30.09 in 10.0 mi Calm Calm - N/A Rain Rain
3:35 PM 38.8 °F - 25.2 °F 58% 30.09 in 10.0 mi Calm Calm - N/A   Overcast
3:55 PM 39.2 °F - 26.2 °F 60% 30.10 in 10.0 mi Calm Calm - N/A   Overcast
4:15 PM 39.4 °F - 25.2 °F 57% 30.10 in 10.0 mi Calm Calm - N/A   Overcast
4:35 PM 39.0 °F - 26.4 °F 61% 30.10 in 10.0 mi Calm Calm - N/A Rain Light Rain
4:55 PM 36.5 °F - 29.3 °F 75% 30.11 in 5.0 mi Calm Calm - N/A Rain Light Rain
5:15 PM 36.1 °F - 29.7 °F 77% 30.11 in 10.0 mi Calm Calm - N/A Rain Light Rain
5:35 PM 36.9 °F 34.3 °F 27.1 °F 68% 30.10 in 10.0 mi SSE 3.5 mph - N/A   Overcast
5:55 PM 36.5 °F 32.7 °F 28.8 °F 74% 30.10 in 10.0 mi SSE 4.6 mph - N/A   Overcast
6:15 PM 37.6 °F - 25.5 °F 62% 30.09 in 10.0 mi Calm Calm - N/A Rain Light Rain
6:35 PM 37.6 °F - 25.5 °F 62% 30.08 in 10.0 mi Calm Calm - N/A   Light Drizzle
6:55 PM 37.4 °F - 25.7 °F 63% 30.07 in 10.0 mi Calm Calm - N/A   Overcast
7:15 PM 37.2 °F - 26.4 °F 65% 30.06 in 10.0 mi Calm Calm - N/A   Overcast
7:35 PM 37.2 °F 34.7 °F 26.1 °F 64% 30.05 in 10.0 mi SSE 3.5 mph - N/A   Overcast
7:55 PM 37.6 °F - 25.5 °F 62% 30.05 in 10.0 mi Calm Calm - N/A   Overcast
8:15 PM 37.8 °F 35.3 °F 26.1 °F 63% 30.04 in 10.0 mi SSE 3.5 mph - N/A   Overcast
8:35 PM 37.4 °F 33.8 °F 26.1 °F 64% 30.03 in 10.0 mi SSE 4.6 mph - N/A   Overcast
8:55 PM 37.4 °F 33.8 °F 25.3 °F 62% 30.02 in 10.0 mi South 4.6 mph - N/A   Overcast
9:15 PM 37.8 °F 34.2 °F 25.0 °F 60% 30.02 in 10.0 mi SSE 4.6 mph - N/A   Overcast
9:35 PM 38.1 °F 33.7 °F 24.6 °F 58% 30.02 in 10.0 mi SSE 5.8 mph - N/A   Overcast
9:55 PM 37.9 °F 35.5 °F 25.7 °F 61% 30.00 in 10.0 mi SSE 3.5 mph - N/A   Overcast
10:15 PM 37.6 °F 33.1 °F 26.6 °F 65% 30.00 in 10.0 mi SSE 5.8 mph - N/A   Drizzle
10:35 PM 37.4 °F - 26.1 °F 64% 30.00 in 10.0 mi Calm Calm - N/A   Light Drizzle
10:55 PM 37.6 °F - 26.4 °F 64% 29.99 in 10.0 mi Calm Calm - N/A   Overcast
11:15 PM 37.6 °F 35.1 °F 27.3 °F 66% 29.98 in 10.0 mi SSE 3.5 mph - N/A   Overcast
11:35 PM 37.6 °F 34.0 °F 28.0 °F 68% 29.97 in 10.0 mi SE 4.6 mph - N/A   Light Drizzle
11:55 PM 37.4 °F - 28.2 °F 69% 29.96 in 10.0 mi Calm Calm - N/A   Overcast